Flag for Germany Weather past 2 weeks in Hockenheim, Baden-Württemberg, Germany

Now
63 °F

Partly sunny.


Feels Like: 63 °F
Forecast: 53 / 65 °F
Wind: 9 mph from West

Location: Baden Wurttemberg - Neuostheim

Current Time: Aug 31, 2014 at 12:14:20 PM

Latest Report: Aug 31, 2014 at 11:50 AM


Visibility: N/A

Pressure: 29.98 "Hg

Humidity: 77%

Dew point: 55 °F

Location of HockenheimLocation

Historic Weather in Hockenheim — Graph

°F

Hockenheim temperature yesterday

Maximum temperature yesterday: 75 °F (at 3:50 PM)
Minimum temperature yesterday: 59 °F (at 7:20 AM)
Average temperature yesterday: 70 °F

Past Weeks' High & Low Weather Summary

 TemperatureHumidityPressure
High77 °F (Aug 29, 3:50 PM)100% (Aug 19, 5:50 AM)30.15 "Hg (Aug 19, 5:50 AM)
Low48 °F (Aug 20, 5:50 AM)33% (Aug 21, 4:20 PM)29.65 "Hg (Aug 26, 5:50 AM)
Average63 °F67%29.98 "Hg
* Reported Aug 16 10:20 AM — Aug 31 10:50 AM, Hockenheim, Weather by CustomWeather, © 2014

Note: Actual official high and low records may vary slightly from our data, if they occured in-between our weather recording intervals... More about our weather records

Advertising

Hockenheim weather history for previous 24 hours

 ConditionsComfort  
Time TempWeatherWind HumidityBarometerVisibility
10:50 AM
Aug 31
61 °FLight rain. Broken clouds.2 mph88%29.98 "HgN/A
10:20 AM61 °FPartly sunny.1 mph88%29.98 "HgN/A
9:50 AM61 °FLight rain. Partly sunny.2 mph88%29.98 "HgN/A
9:20 AM59 °FLight rain. Partly sunny.2 mph94%29.98 "HgN/A
8:50 AM59 °FLight rain. Partly sunny.2 mph94%29.98 "HgN/A
8:20 AM59 °FPartly sunny.3 mph94%29.98 "HgN/A
7:50 AM59 °FScattered showers. Partly sunny.5 mph94%29.98 "Hg5 mi
7:50 PM
Aug 30
72 °FSunny.6 mph53%30.04 "Hg10 mi
7:20 PM72 °FPassing clouds.6 mph53%30.04 "HgN/A
6:50 PM72 °FSunny.8 mph53%30.04 "Hg10 mi
6:20 PM73 °FPartly sunny.8 mph50%30.04 "HgN/A
5:50 PM73 °FPartly sunny.9 mph47%30.04 "HgN/A
5:20 PM73 °FPassing clouds.7 mph47%30.04 "HgN/A
4:50 PM73 °FPassing clouds.9 mph44%30.04 "HgN/A
4:20 PM75 °FPassing clouds.8 mph44%30.04 "HgN/A
3:50 PM75 °FPassing clouds.7 mph44%30.04 "HgN/A
3:20 PM73 °FPassing clouds.8 mph47%30.07 "HgN/A
2:50 PM73 °FBroken clouds.5 mph47%30.07 "HgN/A
2:20 PM72 °FBroken clouds.5 mph50%30.09 "HgN/A
1:50 PM73 °FPassing clouds.7 mph44%30.09 "HgN/A
1:20 PM72 °FPassing clouds.6 mph50%30.09 "HgN/A
12:50 PM70 °FPartly sunny.7 mph53%30.09 "HgN/A
12:20 PM70 °FBroken clouds.7 mph53%30.09 "HgN/A
Weather by CustomWeather, © 2014

See weather overviewHow to use our weather pages